Regional Weather Roundup
Issued by NWS

Home | Current Version | Previous Version | Text Only | Print | Product List | Glossary Off
Versions: 1 2 3 4 5 6 7 8 9 10 11 12 13 14 15 16 17 18 19 20 21 22 23 24 25 26 27 28 29 30 31 32 33 34 35 36 37 38 39 40 41 42 43 44 45 46 47 48 49 50

000
ASUS43 KIND 240609
RWRIN

WEATHER ROUNDUP FOR INDIANA
NATIONAL WEATHER SERVICE INDIANAPOLIS IN
200 AM EDT SUN MAY 24 2015

NOTE: "FAIR" INDICATES FEW OR NO CLOUDS BELOW 12,000 FEET WITH NO
SIGNIFICANT WEATHER AND/OR OBSTRUCTIONS TO VISIBILITY.

* - STATION DOES NOT REPORT WEATHER SUCH AS PRECIPITATION OR FOG.

+ - STATION NOT QUALITY CONTROLLED BY THE NATIONAL WEATHER SERVICE.
    USE DATA WITH CAUTION...ESPECIALLY DEWPOINT AND RELATIVE
    HUMIDITY OBSERVATIONS.

INZ001>003-010>013-019-020-240700-
NORTHWEST INDIANA

CITY           SKY/WX    TMP DP  RH WIND       PRES   REMARKS
GARY /AIRPORT/ PTCLDY    58  50  74 SE3       30.20F
KNOX *+        PTCLDY    57  45  62 S6        30.21F
LA PORTE +     PTCLDY    57  48  71 CALM      30.23S
6HR MIN TEMP:  57; 6HR MAX TEMP:  77;

MICHIGAN CITY+ PTCLDY    54  46  76 CALM      30.22S
MONTICELLO +   PTCLDY    59  51  74 CALM      30.21F
6HR MIN TEMP:  59; 6HR MAX TEMP:  76;

RENSSELAER +   PTCLDY    63  46  55 SE5       30.21S
VALPARAISO     PTCLDY    63  44  50 CALM      30.22F
6HR MIN TEMP:  61; 6HR MAX TEMP:  77;


$$

LMZ046-743>745-240700-
SOUTHERN LAKE MICHIGAN

STATION/POSITION TIME  TEMP    WIND        PRES    WAVE
                       AIR SEA DIR/SP/G            HT
                 (UTC) (F)     (DEG/KT/KT) (MB)    (FT)
BURNS HARBOR     0600   66     180/  5/  9 1023.4S
MICHIGAN CITY    0600   67     140/  8/ 10   N/A
5NW MICH CITY    0600   60 54  190/  4/  4   N/A     0

$$

INZ004-005-014>016-021>024-240700-
NORTH CENTRAL INDIANA

CITY           SKY/WX    TMP DP  RH WIND       PRES   REMARKS
GOSHEN         CLEAR     58  49  72 CALM      30.23F
6HR MIN TEMP:  55; 6HR MAX TEMP:  73;

LOGANSPORT +   PTCLDY    55  41  58 SE5       30.23F
PERU/GRISSOM   PTCLDY    59  46  61 SE6       30.22F
6HR MIN TEMP:  59; 6HR MAX TEMP:  73;

ROCHESTER +    PTCLDY    63  46  55 CALM      30.24F
SOUTH BEND     CLEAR     58  48  69 CALM      30.23F
6HR MIN TEMP:  58; 6HR MAX TEMP:  78;

WARSAW +       PTCLDY    55  46  71 CALM      30.24F

$$

INZ006>009-017-018-025>027-240700-
NORTHEAST INDIANA

CITY           SKY/WX    TMP DP  RH WIND       PRES   REMARKS
ANGOLA *+      CLEAR     54  52  94 CALM      30.25F
AUBURN +       CLEAR     55  46  71 CALM      30.26S
FORT WAYNE     MOCLDY    59  48  67 CALM      30.26S
6HR MIN TEMP:  58; 6HR MAX TEMP:  74;

HUNTINGTON +   PTCLDY    55  47  75 CALM      30.25S
6HR MIN TEMP:  55; 6HR MAX TEMP:  75;


$$

INZ028-029-035-036-043>045-051>053-240700-
WEST CENTRAL INDIANA

CITY           SKY/WX    TMP DP  RH WIND       PRES   REMARKS
CRAWFORDSVL +  PTCLDY    57  42  57 SE6       30.21F
6HR MIN TEMP:  57; 6HR MAX TEMP:  73;

GREENCASTLE +  MOCLDY    59  43  55 CALM      30.23F
LAFAYETTE      PTCLDY    57  47  69 E3        30.21F
6HR MIN TEMP:  55; 6HR MAX TEMP:  75;

TERRE HAUTE    CLOUDY    62  52  69 CALM      30.20F
6HR MIN TEMP:  60; 6HR MAX TEMP:  74;


$$

INZ030>032-037>040-046>048-054>057-064-065-240700-
CENTRAL INDIANA

CITY           SKY/WX    TMP DP  RH WIND       PRES   REMARKS
CP ATTERBURY + CLEAR     52  50  93 CALM      30.25S
FISHERS *+     CLEAR     57  50  77 SE3       30.24
FRANKFORT +    CLEAR     59  46  63 E7        30.24F
6HR MIN TEMP:  56; 6HR MAX TEMP:  77;

GREENWOOD *+   CLEAR     63  43  48 SE5       30.25F
INDIANAPOLIS   PTCLDY    61  47  59 SE7       30.22F
6HR MIN TEMP:  61; 6HR MAX TEMP:  74;

-EAGLE CREEK   CLEAR     60  50  69 CALM      30.23F
6HR MIN TEMP:  59; 6HR MAX TEMP:  75;

KOKOMO *+      PTCLDY    57  45  62 S6        30.24F
6HR MIN TEMP:  55; 6HR MAX TEMP:  73;

MARION +       PTCLDY    57  45  62 CALM      30.25F
MT COMFORT *+  CLEAR     61  36  39 SE5       30.25F
SHELBYVILLE    CLEAR     66  47  50 SE8       30.24F
6HR MIN TEMP:  64; 6HR MAX TEMP:  78;

ZIONSVILLE +   CLEAR     57  45  63 SE3       30.25F
6HR MIN TEMP:  55; 6HR MAX TEMP:  77;


$$

INZ033-034-041-042-049-050-058-059-240700-
EAST CENTRAL INDIANA

CITY           SKY/WX    TMP DP  RH WIND       PRES   REMARKS
MUNCIE         CLEAR     63  45  51 SE5       30.25F
6HR MIN TEMP:  61; 6HR MAX TEMP:  77;


$$

INZ060-061-067>069-081>083-085>088-240700-
SOUTHWEST INDIANA

CITY           SKY/WX    TMP DP  RH WIND       PRES   REMARKS
EVANSVILLE     MOCLDY    64  53  67 CALM      30.19F
6HR MIN TEMP:  62; 6HR MAX TEMP:  75;

HUNTINGBURG *+ MOCLDY    64  48  55 CALM      30.21F
6HR MIN TEMP:  63; 6HR MAX TEMP:  75;

WASHINGTON +   MOCLDY    61  51  70 CALM      30.20F
6HR MIN TEMP:  60; 6HR MAX TEMP:  75;


$$

INZ062-063-066-070>080-084-089>092-240700-
SOUTH CENTRAL AND SOUTHEAST INDIANA

CITY           SKY/WX    TMP DP  RH WIND       PRES   REMARKS
BLOOMINGTON    PTCLDY    56  51  84 CALM      30.23F
6HR MIN TEMP:  56; 6HR MAX TEMP:  75;

MADISON *+     MOCLDY    63  45  51 E3        30.27F
NORTH VERNON + PTCLDY    61  48  63 SE5       30.25F
SEYMOUR +      PTCLDY    57  50  77 CALM      30.24F

$$



USA.gov is the U.S. government's official web portal to all federal, state and local government web resources and services.